Location: Springfield
(37.2150°N, 93.2980°W)
Time: 12:40:08
(UTC-05:00)

Hubble Space Telescope - Visible Passes

Search period start: 19 July 2018 00:00
Search period end: 29 July 2018 00:00
Orbit: 537 x 541 km, 28.5° (Epoch: 18 July)

Date Brightness Start Highest point End Pass type
(mag) Time Alt. Az. Time Alt. Az. Time Alt. Az.
19 Jul 2.1 04:22:02 23° SSE 04:22:02 23° SSE 04:24:59 10° ESE visible
20 Jul 2.3 04:12:19 21° SSE 04:12:19 21° SSE 04:14:35 10° SE visible
21 Jul 2.7 04:02:44 17° SE 04:02:44 17° SE 04:04:10 10° SE visible
22 Jul 3.2 03:53:17 12° SE 03:53:17 12° SE 03:53:42 10° SE visible
22 Jul 2.6 05:28:39 10° SW 05:30:59 15° SSW 05:33:21 10° SSE visible
23 Jul 2.7 05:19:23 12° SW 05:20:31 13° SSW 05:22:21 10° S visible
24 Jul 2.9 05:10:18 10° SSW 05:10:18 10° SSW 05:10:52 10° S visible
28 Jul 2.7 21:33:15 10° SSW 21:35:05 13° SSE 21:35:05 13° SSE visible
